Location: Krakow
(50.0830°N, 19.9170°E)
Time: 20:40:07
(UTC+01:00)

Altair - Pass Details

Date: 01 December 2023
Orbit: 1501 x 1682 km, 47.2° (Epoch: 03 March)

Event Time Altitude Azimuth Distance (km) Brightness Sun altitude
Rises 13:56:29 0° 283° (WNW) 4,700 10.4 11.1°
Reaches altitude 10° 13:59:37 10° 279° (W) 3,698 9.9 10.8°
Maximum altitude 14:08:34 56° 205° (SSW) 1,746 8.6 9.9°
Drops below altitude 10° 14:17:24 10° 131° (SE) 3,649 9.5 9.1°
Sets 14:20:29 0° 127° (SE) 4,635 10.0 8.8°
